Total_Precipitation_Accumulation
0.25 0.28 0.31 0.37 0.43 0.48 0.51 0.53 0.54 0.55 0.56 0.55 0.57 0.56 0.55 0.56 0.61 0.68 0.73 0.75 0.76 0.73 0.70 0.68 0.67 0.67 0.69 0.71 0.75 0.79 0.83 0.91 0.93 0.77 0.65 0.62 0.63 0.63 0.64 0.61 0.56 0.51 0.49
0.24 0.26 0.28 0.32 0.36 0.39 0.43 0.43 0.45 0.48 0.48 0.46 0.45 0.46 0.47 0.47 0.50 0.55 0.61 0.64 0.67 0.69 0.71 0.72 0.72 0.73 0.76 0.78 0.80 0.79 0.78 0.78 0.80 0.76 0.64 0.57 0.54 0.51 0.50 0.50 0.48 0.44 0.39
0.22 0.23 0.23 0.23 0.25 0.28 0.34 0.38 0.40 0.46 0.50 0.50 0.46 0.42 0.41 0.42 0.45 0.48 0.51 0.56 0.58 0.60 0.64 0.70 0.73 0.76 0.81 0.81 0.80 0.78 0.74 0.71 0.71 0.72 0.63 0.53 0.48 0.45 0.46 0.44 0.43 0.41 0.37
0.19 0.20 0.19 0.20 0.21 0.23 0.26 0.30 0.34 0.39 0.45 0.45 0.46 0.44 0.41 0.41 0.44 0.47 0.53 0.58 0.62 0.65 0.66 0.68 0.71 0.72 0.72 0.70 0.68 0.67 0.68 0.68 0.67 0.69 0.67 0.59 0.52 0.47 0.48 0.48 0.47 0.40 0.37
0.16 0.17 0.18 0.19 0.20 0.22 0.24 0.27 0.30 0.34 0.39 0.42 0.44 0.44 0.45 0.45 0.49 0.54 0.57 0.63 0.68 0.72 0.74 0.73 0.69 0.66 0.61 0.59 0.57 0.56 0.55 0.60 0.67 0.71 0.67 0.60 0.53 0.50 0.48 0.46 0.48 0.45 0.39
0.16 0.16 0.16 0.18 0.18 0.21 0.24 0.27 0.28 0.32 0.38 0.43 0.49 0.55 0.57 0.62 0.73 0.74 0.69 0.67 0.69 0.68 0.66 0.63 0.61 0.59 0.57 0.58 0.58 0.55 0.57 0.65 0.73 0.73 0.63 0.51 0.40 0.37 0.41 0.48 0.53 0.56 0.47
0.15 0.16 0.17 0.19 0.21 0.22 0.26 0.30 0.36 0.41 0.49 0.56 0.59 0.69 0.73 0.76 0.77 0.70 0.66 0.61 0.62 0.61 0.56 0.51 0.47 0.43 0.44 0.41 0.47 0.52 0.53 0.56 0.59 0.57 0.50 0.39 0.37 0.39 0.52 0.65 0.60 0.55 0.41
0.16 0.20 0.22 0.23 0.30 0.36 0.36 0.39 0.46 0.52 0.59 0.66 0.66 0.69 0.73 0.74 0.70 0.62 0.58 0.51 0.47 0.45 0.42 0.39 0.35 0.34 0.34 0.38 0.45 0.51 0.43 0.38 0.36 0.34 0.35 0.39 0.41 0.42 0.49 0.60 0.58 0.50 0.37
0.18 0.23 0.26 0.28 0.37 0.46 0.46 0.48 0.52 0.57 0.63 0.65 0.64 0.59 0.55 0.54 0.53 0.47 0.44 0.40 0.38 0.36 0.35 0.35 0.35 0.32 0.35 0.49 0.54 0.51 0.39 0.30 0.30 0.34 0.38 0.38 0.36 0.35 0.37 0.53 0.65 0.66 0.49
0.28 0.32 0.37 0.43 0.50 0.54 0.54 0.53 0.50 0.48 0.50 0.48 0.44 0.40 0.37 0.34 0.34 0.34 0.34 0.30 0.30 0.31 0.34 0.35 0.37 0.35 0.41 0.53 0.48 0.46 0.38 0.31 0.32 0.29 0.26 0.25 0.22 0.23 0.30 0.44 0.77 1.03 0.76
0.42 0.45 0.45 0.49 0.51 0.51 0.49 0.45 0.40 0.34 0.32 0.31 0.30 0.28 0.27 0.27 0.28 0.28 0.29 0.29 0.29 0.33 0.35 0.33 0.33 0.46 0.53 0.51 0.42 0.33 0.35 0.42 0.36 0.26 0.23 0.21 0.19 0.19 0.20 0.24 0.45 0.98 1.18
0.42 0.42 0.40 0.38 0.38 0.39 0.38 0.36 0.31 0.27 0.25 0.24 0.25 0.26 0.27 0.28 0.28 0.30 0.34 0.38 0.41 0.36 0.30 0.28 0.34 0.49 0.48 0.41 0.34 0.35 0.43 0.40 0.30 0.28 0.26 0.24 0.21 0.19 0.18 0.19 0.24 0.38 0.68
0.32 0.32 0.29 0.25 0.24 0.25 0.25 0.25 0.25 0.23 0.21 0.23 0.26 0.27 0.29 0.31 0.33 0.35 0.38 0.45 0.48 0.41 0.37 0.43 0.47 0.43 0.36 0.33 0.33 0.36 0.34 0.30 0.33 0.38 0.34 0.27 0.22 0.22 0.22 0.24 0.24 0.26 0.33
0.19 0.21 0.21 0.19 0.18 0.18 0.19 0.21 0.21 0.21 0.20 0.20 0.24 0.27 0.28 0.28 0.30 0.33 0.37 0.41 0.44 0.44 0.46 0.47 0.41 0.34 0.30 0.29 0.32 0.33 0.31 0.30 0.36 0.43 0.39 0.30 0.26 0.27 0.29 0.35 0.44 0.44 0.49
0.14 0.15 0.16 0.17 0.18 0.18 0.20 0.22 0.24 0.25 0.27 0.26 0.23 0.25 0.27 0.26 0.30 0.41 0.43 0.41 0.46 0.50 0.49 0.36 0.27 0.25 0.26 0.25 0.25 0.26 0.29 0.31 0.33 0.34 0.39 0.38 0.33 0.32 0.32 0.40 0.57 0.66 0.69
0.13 0.14 0.16 0.17 0.17 0.18 0.20 0.21 0.25 0.26 0.28 0.30 0.30 0.29 0.26 0.28 0.35 0.41 0.44 0.48 0.51 0.47 0.38 0.29 0.28 0.27 0.26 0.24 0.24 0.25 0.26 0.29 0.34 0.41 0.43 0.43 0.45 0.44 0.44 0.45 0.60 0.74 0.73
0.13 0.15 0.16 0.17 0.18 0.18 0.19 0.21 0.21 0.22 0.24 0.26 0.27 0.29 0.30 0.30 0.31 0.34 0.40 0.43 0.38 0.34 0.28 0.28 0.29 0.29 0.29 0.28 0.29 0.31 0.31 0.29 0.37 0.49 0.54 0.54 0.55 0.52 0.53 0.57 0.64 0.68 0.65
0.14 0.16 0.17 0.17 0.18 0.17 0.18 0.19 0.19 0.20 0.20 0.19 0.21 0.25 0.27 0.29 0.30 0.32 0.36 0.32 0.25 0.24 0.25 0.27 0.28 0.27 0.29 0.33 0.35 0.38 0.39 0.38 0.42 0.50 0.55 0.57 0.63 0.66 0.63 0.62 0.65 0.68 0.62
0.13 0.14 0.15 0.16 0.18 0.19 0.19 0.19 0.19 0.20 0.20 0.20 0.20 0.22 0.26 0.28 0.29 0.30 0.29 0.23 0.22 0.24 0.25 0.26 0.26 0.28 0.31 0.35 0.37 0.40 0.43 0.48 0.53 0.63 0.63 0.64 0.69 0.76 0.69 0.61 0.59 0.50 0.42
0.11 0.15 0.16 0.15 0.15 0.16 0.19 0.20 0.20 0.21 0.21 0.21 0.22 0.23 0.26 0.29 0.26 0.22 0.21 0.21 0.26 0.28 0.28 0.27 0.27 0.28 0.33 0.38 0.40 0.43 0.47 0.48 0.54 0.61 0.65 0.69 0.73 0.78 0.73 0.58 0.46 0.41 0.34
0.10 0.12 0.16 0.15 0.14 0.15 0.16 0.17 0.19 0.20 0.21 0.21 0.21 0.25 0.34 0.31 0.24 0.20 0.21 0.25 0.28 0.30 0.31 0.31 0.29 0.32 0.36 0.41 0.44 0.45 0.49 0.51 0.58 0.68 0.71 0.68 0.68 0.63 0.51 0.46 0.41 0.39 0.39
0.11 0.12 0.12 0.13 0.14 0.16 0.18 0.18 0.19 0.19 0.19 0.19 0.19 0.23 0.30 0.25 0.22 0.22 0.23 0.24 0.26 0.27 0.29 0.33 0.33 0.34 0.45 0.57 0.67 0.68 0.59 0.54 0.58 0.68 0.68 0.59 0.53 0.49 0.45 0.44 0.41 0.41 0.41
0.11 0.13 0.14 0.14 0.16 0.19 0.20 0.18 0.18 0.18 0.19 0.19 0.20 0.21 0.22 0.22 0.23 0.23 0.23 0.23 0.24 0.25 0.26 0.31 0.37 0.35 0.39 0.55 0.71 0.95 1.00 0.83 0.75 0.81 0.86 0.71 0.57 0.53 0.54 0.52 0.46 0.43 0.38
0.11 0.13 0.15 0.16 0.18 0.19 0.19 0.19 0.18 0.18 0.19 0.19 0.19 0.19 0.20 0.22 0.23 0.22 0.22 0.22 0.23 0.24 0.26 0.32 0.38 0.39 0.42 0.56 0.68 0.78 0.90 1.00 1.15 1.16 1.12 1.08 0.84 0.65 0.58 0.53 0.44 0.40 0.38
0.13 0.14 0.15 0.16 0.18 0.19 0.20 0.19 0.19 0.18 0.18 0.18 0.18 0.18 0.19 0.20 0.21 0.20 0.20 0.21 0.22 0.22 0.21 0.26 0.34 0.41 0.47 0.56 0.67 0.72 0.76 0.87 1.03 1.09 0.97 0.87 0.73 0.60 0.57 0.52 0.44 0.39 0.37
0.14 0.15 0.16 0.17 0.18 0.19 0.20 0.20 0.19 0.20 0.20 0.20 0.20 0.20 0.20 0.20 0.19 0.18 0.18 0.20 0.21 0.20 0.19 0.21 0.25 0.36 0.46 0.54 0.55 0.61 0.70 0.67 0.59 0.56 0.66 0.71 0.64 0.54 0.52 0.53 0.45 0.42 0.38